Yoho Park, British Columbia

7:01 PM MDT on May 25, 2018 (GMT -0600)
Yoho Park

Weather History for CWYL - March, 2014

Change the Weather History Date:

Sunday, March 2, 2014

  Actual Average Record
Temperature  
Mean Temperature -10 °F -  
Max Temperature 0 °F - - ()
Min Temperature -19 °F - - ()
Degree Days  
Heating Degree Days 74    
Moisture  
Dew Point -15 °F    
Average Humidity 74    
Maximum Humidity 85    
Minimum Humidity 57    
Precipitation  
Precipitation 0.08 in - - ()
Sea Level Pressure  
Sea Level Pressure 30.13 in    
Wind  
Wind Speed 8 mph ()    
Max Wind Speed 12 mph    
Max Gust Speed -    
T = Trace of Precipitation, MM = Missing Value Source: Averaged Metar Reports

Daily Weather History Graph

Daily Weather History Graph

Search for Another Location

Airport or City:

Astronomy

Mar. 02, 2014 Rise Set
Actual Time 7:27 AM MST 6:27 PM MST
Civil Twilight 6:54 AM MST 7:01 PM MST
Nautical Twilight 6:16 AM MST 7:39 PM MST
Astronomical Twilight 5:37 AM MST 8:18 PM MST
Moon 7:47 AM MST (3/2) 8:47 PM MST (3/2)
Length of Visible Light 12h 06m
Length of Day
10h 59m
Waxing Crescent, 3% of the Moon is Illuminated
Mar 2
Waxing Crescent
Mar 8
First Quarter
Mar 16
Full
Mar 23
Last Quarter
Mar 30
New

Hourly Weather History & Observations

Time (MST) Temp. Windchill Dew Point Humidity Pressure Visibility Wind Dir Wind Speed Gust Speed Precip Events Conditions
12:00 AM -16.6 °F -34.4 °F -23.1 °F 72% 30.22 in - ENE 8.1 mph - N/A   Unknown
1:00 AM -18.2 °F -36.4 °F -24.5 °F 73% 30.20 in - NE 8.1 mph - N/A   Unknown
2:00 AM -18.2 °F -38.9 °F -24.7 °F 72% 30.22 in - ENE 10.4 mph - N/A   Unknown
3:00 AM -18.9 °F -39.8 °F -25.4 °F 72% 30.20 in - NE 10.4 mph - N/A   Unknown
4:00 AM -19.3 °F -41.3 °F -25.6 °F 73% 30.20 in - NE 11.5 mph - N/A   Unknown
5:00 AM -19 °F - -25 °F 59% 30.19 in - NE 11.5 mph - -  
5:00 AM -18.8 °F -40.6 °F -25.2 °F 72% 30.19 in - NE 11.5 mph - N/A   Unknown
6:00 AM -19.1 °F -37.5 °F -25.1 °F 74% 30.22 in - ENE 8.1 mph - N/A   Unknown
7:00 AM -18.6 °F -38.1 °F -24.5 °F 74% 30.21 in - ENE 9.2 mph - N/A   Unknown
8:00 AM -17.9 °F -34.5 °F -24.0 °F 74% 30.21 in - East 6.9 mph - N/A   Unknown
9:00 AM -16.1 °F -35.0 °F -23.1 °F 71% 30.21 in - NE 9.2 mph - N/A   Unknown
10:00 AM -14.1 °F -32.6 °F -20.7 °F 72% 30.20 in - NE 9.2 mph - N/A   Unknown
11:00 AM -11 °F - -18 °F 57% 30.16 in - ENE 9.2 mph - -  
11:00 AM -11.2 °F -29.0 °F -18.0 °F 72% 30.16 in - ENE 9.2 mph - N/A   Unknown
12:00 PM -8.3 °F -24.3 °F -15.3 °F 71% 30.16 in - ENE 8.1 mph - N/A   Unknown
1:00 PM -5.8 °F -19.9 °F -12.5 °F 73% 30.15 in - ENE 6.9 mph - N/A   Unknown
2:00 PM -3.5 °F -18.4 °F -9.8 °F 74% 30.10 in - ENE 8.1 mph - 0.02 in   Unknown
3:00 PM 0.1 °F -9.7 °F -6.9 °F 72% 30.09 in - NE 4.6 mph - 0.01 in   Unknown
4:00 PM 0.5 °F -12.3 °F -5.4 °F 76% 30.07 in - ENE 6.9 mph - N/A   Unknown
5:00 PM 0 °F - -5 °F 70% 30.05 in - ENE 8.1 mph - -  
5:00 PM 0.5 °F -13.6 °F -3.1 °F 85% 30.05 in - ENE 8.1 mph - 0.02 in   Unknown
6:00 PM -0.6 °F -16.0 °F -5.3 °F 81% 30.04 in - ENE 9.2 mph - N/A   Unknown
7:00 PM -1.7 °F -17.3 °F -5.6 °F 83% 30.04 in - ENE 9.2 mph - N/A   Unknown
8:00 PM -2.4 °F -17.1 °F -6.5 °F 82% 30.03 in - NE 8.1 mph - 0.02 in   Unknown
9:00 PM -1.3 °F -14.5 °F -6.9 °F 77% 30.01 in - East 6.9 mph - 0.01 in   Unknown
10:00 PM -3.6 °F -19.7 °F -7.6 °F 83% 29.99 in - ENE 9.2 mph - 0.02 in   Unknown
11:00 PM -4 °F - -8 °F 73% 29.97 in - East 8.1 mph - -  
11:00 PM -4.2 °F -19.3 °F -8.1 °F 83% 29.97 in - East 8.1 mph - 0.01 in   Unknown